Weather in Kamyshevka

Russia / Kurgan Oblast     56°21′10″N   64°47′43″E
temp.,
°C
wind,
m/s
gust,
m/s
humid.,
%
clouds,
%
prec.,
mm/h
press.,
hPa
HPBL,
m
10 may, mon
mon1023:00+15ene365117 0.0 1019140
02:00+12ne41159100 0.0 1020277
05:00+11ne496287 0.0 1022281
08:00+14ene5848100 0.0 1023590
11:00+16ene6835100 0.0 10241293
14:00+18ene5728100 0.0 10241635
17:00+18ene5627100 0.0 10241747
20:00+15e2242100 0.0 102522
11 may, tue
tue1123:00+12e224893 0.0 102611
02:00+10e11523 0.0 102710
05:00+9ene11557 0.0 102810
08:00+15ese004148 0.0 1028230
11:00+20ssw11304 0.0 10281560
14:00+21wsw222730 0.0 10281854
17:00+21w2326100 0.0 10271811
20:00+17w2241100 0.0 102821
12 may, wed
wed1223:00+14w224135 0.0 102822
02:00+12w344616 0.0 102755
05:00+12wsw3549100 0.0 1027108
08:00+16wnw3544100 0.0 1027326
11:00+19nnw2448100 0.0 1027678
14:00+22n4544100 0.0 10261749
17:00+22nnw244096 0.0 10261709
20:00+18n2354100 0.0 102644
13 may, thu
thu1323:00+15nne2255100 0.0 102624
02:00+13ene2267100 0.0 102720
05:00+12ene006816 0.0 102810
08:00+16wnw235386 0.0 1028283
11:00+21nw344448 0.0 10271440
14:00+24nw363674 0.0 10252457
17:00+25nne143540 0.0 10241273
20:00+21n124945 0.0 102417
14 may, fri
fri1423:00+17sse225824 0.0 102511
02:00+16ene11625 0.0 102611
05:00+15sse11675 0.0 102711
08:00+21sw22505 0.0 1027288
11:00+26wsw35365 0.0 10261915
14:00+28w56295 0.0 10242511
17:00+28w57296 0.0 10232720
20:00+23w334510 0.0 102225